Regional Weather Roundup
Issued by NWS

Home | Current Version | Previous Version | Text Only | Print | Product List | Glossary On
Versions: 1 2 3 4 5 6 7 8 9 10 11 12 13 14 15 16 17 18 19 20 21 22 23 24 25 26 27 28 29 30 31 32 33 34 35 36 37 38 39 40 41 42 43 44 45 46 47 48 49 50
000
ASHW40 PHFO 282310
RWRHI

WEATHER ROUNDUP FOR HAWAII
NATIONAL WEATHER SERVICE HONOLULU HI
100 PM HST FRI NOV 28 2014

THIS IS AN AUTOMATED REPORT THAT HAS NOT BEEN QUALITY CONTROLLED.

NOTE..."FAIR" INDICATES FEW OR NO CLOUDS BELOW 12,000 FEET WITH NO
SIGNIFICANT WEATHER AND/OR OBSTRUCTIONS TO VISIBILITY.

* - THESE SITES REPORT LIMITED FIELDS

HIZ001>004-290000-
KAUAI-NIIHAU-

CITY           SKY/WX    TMP DP  RH WIND       PRES   REMARKS
LIHUE APT      MOSUNNY   80  64  58 NE21G26   30.06F
PORT ALLEN*      N/A     81 N/A N/A E23G35      N/A
POIPU*           N/A     81 N/A N/A NE10G23     N/A
PRINCEVILLE*     N/A     75 N/A N/A MISG        N/A
KOKOLE POINT*  NOT AVBL
MOLOAA DAIRY*  NOT AVBL
WAIMEA HTS*    NOT AVBL
PUU OPAE*      NOT AVBL
PUU LUA*       NOT AVBL
MAKAHA RIDGE*  NOT AVBL
$$

HIZ005>011-290000-
OAHU-

CITY           SKY/WX    TMP DP  RH WIND       PRES   REMARKS
HONOLULU       PTSUNNY   81  62  52 NE20G33   30.00F
KALAELOA       MOSUNNY   79  63  57 NE9G23    30.02F
KANEOHE MCB    CLOUDY    77  62  59 NE15G26     N/A
WHEELER FIELD  FAIR      75  62  63 NE18G26   30.04F
BELLOWS*       NOT AVBL
KAHUKU*        NOT AVBL
WHEELER*       NOT AVBL
WAIANAE HARBOR NOT AVBL
DILLINGHAM*      N/A     63  50  63 NE7G16      N/A
KAHUKU TRN*      N/A     70  55  60 E12G26      N/A
KAWAILOA*        N/A     70  63  78 NE13G24     N/A
KII*             N/A     75  61  60 NE20G30     N/A
MAKUA RANGE*     N/A     79  61  53 NE20G33     N/A
OAHU FOREST NW NOT AVBL
SCHOFIELD BRK*   N/A     66  55  68 MISG        N/A
SCHOFIELD S*   NOT AVBL
WAIANAE VLY*   NOT AVBL
KUAOKALA*      NOT AVBL
HONOULIUULI*   NOT AVBL
MOKUOLOE IS*     N/A    N/A N/A N/A MISG        N/A
PALEHUA*       NOT AVBL
WAIAWA PHB*    NOT AVBL
$$

HIZ012>013-290000-
MOLOKAI-

CITY           SKY/WX    TMP DP  RH WIND       PRES   REMARKS
MOLOKAI AIRPT  PTSUNNY   74  64  71 NE16G28   30.01F
KALAUPAPA      NOT AVBL
MAKAPULAPAI*   NOT AVBL
MOLOKAI 1*     NOT AVBL
PUU ALII*      NOT AVBL
$$

HIZ016-290000-
KAHOOLAWE-

CITY           SKY/WX    TMP DP  RH WIND       PRES   REMARKS
KAHOOLAWE*     NOT AVBL
HAKIOAWA*      NOT AVBL
HONOKANAIA*      N/A     81  63  53 VRB17G31  29.99F
KANELOA*         N/A     75  64  69 NE10G24   29.23F
KEALIALALO*    NOT AVBL
LUA MAKIKA*    NOT AVBL
$$

HIZ014>015-290000-
LANAI-

CITY           SKY/WX    TMP DP  RH WIND       PRES   REMARKS
LANAI CITY       N/A     75  64  69 NE31G48   30.02  HAZE
LANAI 1*       NOT AVBL
$$

HIZ017>028-290000-
MAUI-

CITY           SKY/WX    TMP DP  RH WIND       PRES   REMARKS
KAHULUI        LGT RAIN  78  65  63 NE17G24   30.02F
KAPALUA-W MAUI LGT RAIN  73  68  83 NE18G29   30.01F FOG
HANA AIRPORT   CLOUDY    77  64  65 NE10      30.05F
HANA*          NOT AVBL
HALEAKALA SUMM   N/A     57  21  24 NW12        N/A
MAALAEA BAY*   NOT AVBL
HALEAKALA*     NOT AVBL
KAUPO GAP*     NOT AVBL
KULA 1*          N/A     61  56  83 NW3G10      N/A
$$

HIZ023>026-290000-
BIG ISLAND OF HAWAII COAST AND LOWER SLOPES-

CITY           SKY/WX    TMP DP  RH WIND       PRES   REMARKS
KAILUA KONA    MOSUNNY   89  62  40 SE8G23    29.89F
HILO           PTSUNNY   80  66  62 NE13      30.00F
HONOKAA*       NOT AVBL
KAWAIHAE MWT*  NOT AVBL
KAWAIHAE*        N/A     82 N/A N/A SW16        N/A
SOUTH POINT*   NOT AVBL
UPOLU AIRPORT* NOT AVBL
KAMUELA*       NOT AVBL
HAKALAU*         N/A     57  56  95 NE5         N/A
KALOKO-HONOKO* NOT AVBL
PALI 2*          N/A     75  61  60 N23G35      N/A
KEALAKOMO*       N/A     84  64  51 NE24G36     N/A
KAUPULEHU*     NOT AVBL
KAPAPALA*        N/A     82  62  49 NE10G21     N/A
LOWER KAHUKU*  NOT AVBL
PUHE CS*       NOT AVBL
PUHO CS*       NOT AVBL
PTA KEAMUKU*     N/A    N/A N/A N/A NE26G39     N/A
WAIKOLOA*      NOT AVBL
$$

HIZ027>028-290000-
BIG ISLAND OF HAWAII INTERIOR AND SUMMMITS-

CITY           SKY/WX    TMP DP  RH WIND       PRES   REMARKS
BRADSHAW FIELD SUNNY     66  55  66 S16G26    30.26F
MK VISITOR CEN NOT AVBL
MAUNA KEA*       N/A     45   3  18 NW20        N/A
MAUNA LOA*       N/A    N/A N/A N/A MISG        N/A
MAUNA LOA 1*   NOT AVBL
PTA KIPUKA*      N/A     73  54  49 E3G15       N/A
PTA RANGE 17*    N/A     72  52  49 E15G24      N/A
PTA WEST*        N/A     73  59  60 W7G20       N/A
NENE CABIN*    NOT AVBL
AHUMOA*        NOT AVBL
PTA PORTABLE*  NOT AVBL
PUU MALI*      NOT AVBL
$$

HIC003-290000-
NORTHWEST ISLANDS-

CITY           SKY/WX    TMP DP  RH WIND       PRES   REMARKS
MIDWAY ISLAND  MOSUNNY   79  72  78 SE21G26   29.98F
MIDWAY NOS*    NOT AVBL
FRENCH FRIGATE NOT AVBL
$$

PHZ110>124-180-290000-
BUOY REPORTS

STATION/POSITION TIME  TEMP    WIND        PRES    WAVE   SWELL
                       AIR SEA DIR/SP/G            HT/PER HT/DIR
                 (UTC) (F)     (DEG/KT/KT) (MB)    (FT/S) (FT/D)
BUOY 51001       NOT AVBL
BUOY 51101       2300   74 77   70/ 21/ 25 1019.4F  10/11   7/ 10
BUOY 51100       2300   73 77   50/ 19/ 21 1018.6F
BUOY 51003       2200   78 80   60/ 19/ 23 1015.3F   9/12   7
BUOY 51004       2223   79 80   80/ 17/ 21 1012.7F   8/14   7/340
BARBERS PT BUOY  NOT AVBL
WAIMEA BAY BUOY  2300      78                N/A     9/13   7/340
KAILUA BAY BUOY  2300      78                N/A    10/ 7   5/ 10
LANAI BUOY       2300      79                N/A     3/ 4   2/300
BARBERS PT 2     2300      79                N/A     5/13   3/310
PAUWELA MAUI     2300      79                N/A    10/13   5/340
HILO             2300      79                N/A    10/13   5/350
KANEOHE BAY BUOY 2300      78                N/A     9/ 7   3
HANALEI KAUAI    NOT AVBL
KAHULUI HARBOR   2300   74 76   40/ 10/ 14 1016.7F
HONOLULU HARBOR  2300   77      60/ 14/ 22 1016.6F
KILO NALU        NOT AVBL
HILO HARBOR      2300   78      30/ 16/ 19 1015.6F
MOKUOLOE         2300      75              1017.7F
NAWILIWILI       2300      78                N/A
WHOTS BUOY       NOT AVBL
BUOY 51028       NOT AVBL
$$

......................KEY........................................
  SKY/WX - SKY CONDITIONS/PRESENT WEATHER
  TMP    - TEMPERATURE IN FAHRENHEIT
  DWPT   - DEWPOINT IN FAHRENHEIT
  RH     - RELATIVE HUMIDITY IN PERCENT
  WIND   - DIRECTION AND SPEED /MPH FOR ISLANDS...KTS FOR BUOYS/
  PRES   - MEAN SEA LEVEL PRESSURE IN INCHES OF HG
  VSB    - VISIBILITY IN MILES
  HX     - HEAT INDEX
  WCI    - WIND CHILL INDEX
  VRB    - VARIABLE WIND DIRECTION
  N/A    - NOT AVAILABLE


USA.gov is the U.S. government's official web portal to all federal, state and local government web resources and services.